SINOD-D 3

Last updated on Wed Nov 20 2024 00:03:37 GMT+0000 (Coordinated Universal Time)

1 40977U 15058P 24324.44481229 .00008094 00000+0 69627-3 0 9998 2 40977 64.7743 262.0460 0179287 259.3965 98.6908 14.86371154 29071
UTC large
Height (km)
Speed (km/s)
/
Latitude / Longitude
Inclination (degrees)
Orbital Period (minutes)
Azimuth
Elevation
Range (km)
Doppler Factor

Next 0 passes for location: London (51.5072 / 0.1276)

Sorry there are no passes over London.